User: anonymous   Login
Location: Holyhead Bay
(53.3667°N, 4.6667°W)
Time: 17:57:04
(UTC+00:00)
Language:

deb Kosmos-1275 - Orbit

View from above orbital plane
View from above orbital plane
View from above satellite
View from above satellite

Ground track
Ground track

The orbit data is extracted from the following two-line orbital elements,

1 19027U 81053ME  21172.52360500  .00000854  00000-0  54676-3 0  9998
2 19027  83.0135 200.8775 0080158 136.2614  16.1940 14.00734696825573
Epoch (UTC): 21 June 2021 12:33:59
Eccentricity: 0.0080158
inclination: 83.0135°
perigee height: 833 km
apogee height: 949 km
right ascension of ascending node: 200.8775°
argument of perigee: 136.2614°
revolutions per day: 14.00734696
mean anomaly at epoch: 16.1940°
orbit number at epoch: 82557

The dashed part of the orbit path shows where the satellite is in the earth's shadow,  

DLR